Regional Weather Roundup
Issued by NWS

Home | Current Version | Previous Version | Graphics & Text | Print | Product List | Glossary On
Versions: 1 2 3 4 5 6 7 8 9 10 11 12 13 14 15 16 17 18 19 20 21 22 23 24 25 26 27
000
ASUS45 KTFX 231710
RWRMT
MONTANA REGIONAL WEATHER ROUNDUP
NATIONAL WEATHER SERVICE GREAT FALLS MT
1100 AM MDT TUE AUG 23 2016

NOTE: "FAIR" INDICATES FEW OR NO CLOUDS BELOW 12000 FEET WITH NO
SIGNIFICANT WEATHER AND/OR OBSTRUCTIONS TO VISIBILITY.

MTZ001>007-043-231800-
WEST OF THE DIVIDE

CITY           SKY/WX    TMP DP  RH WIND       PRES   REMARKS
KALISPELL      MOSUNNY   64  37  36 VRB7      30.10R
MISSOULA       MOSUNNY   63  34  33 SE8       30.14S
BUTTE          SUNNY     58  26  29 NW12      30.18S
MULLAN PASS    MOSUNNY   51  35  54 MISG      30.20R
DEER LODGE       N/A     61  28  29 CALM      30.17S
EUREKA           N/A     63  37  39 N7        30.12R
HAMILTON         N/A     64  34  32 S7        30.15R
LIBBY            N/A     63  37  39 NW5       30.12R
$$

MTZ008-052>055-231800-
SOUTHWEST MONTANA

CITY           SKY/WX    TMP DP  RH WIND       PRES   REMARKS
BOZEMAN        SUNNY     62  29  28 NW7       30.14S
DILLON         SUNNY     62  26  25 CALM      30.14F
W YELLOWSTONE  SUNNY     59  16  18 N3        30.19S HAZE
ENNIS          SUNNY     63  19  19 CALM      30.19S
THREE FORKS      N/A     66  66 100 CALM      30.10S
TWIN BRIDGES     N/A     63  22  21 S5        30.12S
$$

MTZ009-010-012-014-046-048-049-054-231800-
EAST SLOPES AND CENTRAL MONTANA

CITY           SKY/WX    TMP DP  RH WIND       PRES   REMARKS
CUT BANK       CLOUDY    61  40  45 N14       30.05R
GREAT FALLS    SUNNY     69  30  23 W15G24    30.02F
MALMSTROM AFB  MOSUNNY   67  33  27 W13G21    30.03S
HELENA         SUNNY     67  31  26 W16G23    30.10S
CHOTEAU          N/A     68  32  26 N8G18     30.05R
$$

MTZ011-013-016-021-045-047-050-051-231800-
NORTH CENTRAL MONTANA

CITY           SKY/WX    TMP DP  RH WIND       PRES   REMARKS
HAVRE          CLOUDY    65  46  50 W29G37    29.96S
LEWISTOWN      SUNNY     66  34  30 NW15G24   30.04S
N BAR RANCH      N/A     64  30  27 W14G23    30.05F
CHINOOK          N/A     63  46  55 W22G32    29.94R
$$

MTZ017>020-022>027-061-062-231800-
NORTHEAST MONTANA

CITY           SKY/WX    TMP DP  RH WIND       PRES   REMARKS
GLASGOW        SUNNY     68  43  40 W23G37    29.89F
JORDAN           N/A     71  37  28 W13       29.95F
SIDNEY         CLOUDY    73  38  27 NW12      29.88
WOLF POINT     SUNNY     73  43  33 W22G32    29.90R
POPLAR           N/A     70  39  32 W22G31    29.87S
SCOBEY           N/A     62  40  44 W13       29.86R
$$

MTZ028>42-056>058-231800-
SOUTHCENTRAL AND SOUTHEAST MONTANA

CITY           SKY/WX    TMP DP  RH WIND       PRES   REMARKS
BAKER          SUNNY     72  33  24 NW24G31   29.94S
BILLINGS       MOSUNNY   68  31  25 CALM      30.04S
LIVINGSTON     SUNNY     66  25  21 W20       30.09F
MILES CITY     SUNNY     73  29  19 NW21G29   29.97R
FORSYTH          N/A     70  34  26 NW10      29.98F
LAUREL           N/A     70  26  19 W6        30.03R
ROUNDUP          N/A     69  27  21 W3        29.93F
$$

REGIONAL REPORTS...DAKOTAS

CITY           SKY/WX    TMP DP  RH WIND       PRES   REMARKS
WILLISTON      MOSUNNY   72  36  26 NW17G26   29.85R
MINOT          MOSUNNY   77  39  25 W26G37    29.73R
DICKINSON      SUNNY     75  30  19 NW25G35   29.83R
CROSBY           N/A     68  41  37 W15G23    29.82S
BISMARCK       MOSUNNY   76  54  46 N22G35    29.71R
GRAND FORKS    CLOUDY    76  64  66 S15       29.62S
FARGO          SUNNY     81  65  58 S16G23    29.70S
BUFFALO SD       N/A     73  34  23 NW28G36   29.84R
RAPID CITY     SUNNY     76  35  22 NW32G43   29.90R
$$

REGIONAL REPORTS...WYOMING/IDAHO/WASHINGTON

CITY           SKY/WX    TMP DP  RH WIND       PRES   REMARKS
GILLETTE       SUNNY     69  28  21 N12G23    30.04R
SHERIDAN       MOSUNNY   71  29  21 NW12      30.05S
BUFFALO WY     CLOUDY    68  25  19 N12G24    30.10R
CODY           SUNNY     64  32  29 N10       30.08F
YELLOWSTONE LA   N/A     61   9  12 VRB6      30.24S
IDAHO FALLS    CLOUDY    67  29  24 S17       30.12S
SALMON         SUNNY     63  28  27 CALM      30.15F
BOISE          SUNNY     66  32  28 NW9       30.13R
SPOKANE        MOSUNNY   67  41  38 CALM      30.13R
$$

REGIONAL REPORTS...ALBERTA

CITY           SKY/WX    TMP DP  RH WIND       PRES   REMARKS
EDMONTON       LGT RAIN  54  52  94 N16G30    29.99R
CALGARY        LGT RAIN  55  46  71 NW32G44   30.03R
LETHBRIDGE     LGT RAIN  57  46  67 W22G31    30.01R
MEDICINE HAT   LGT RAIN  59  52  77 W26G33    29.87R
WATERTON GATE    N/A     57  37  47 SW15G21     N/A
CARDSTON         N/A     57  41  54 N7          N/A
MILK RIVER       N/A     54  46  76 W18         N/A
ONEFOUR          N/A     55  46  71 W26G35      N/A
$$

REGIONAL REPORTS...SASKATCHEWAN

CITY           SKY/WX    TMP DP  RH WIND       PRES   REMARKS
SWIFT CURRENT  PTSUNNY   59  48  67 W20G31    29.75S
REGINA         PTSUNNY   66  46  48 W21       29.77S
SASKATOON      PTSUNNY   59  48  67 SE10      29.69R
VAL MARIE        N/A     64  43  45 W18G25      N/A
ASSINIBOIA       N/A     55  54  94 N15G22      N/A
$$




USA.gov is the U.S. government's official web portal to all federal, state and local government web resources and services.